User: anonymous   Login
Location: Bangkok
(13.7500°N, 100.5170°E)
Time: 16:29:43
(UTC+07:00)
Language:

Cosmos 1898 Rocket - Orbit

View from above orbital plane
View from above orbital plane
View from above satellite
View from above satellite

Ground track
Ground track

The orbit data is extracted from the following two-line orbital elements,

1 18586U 87098B   17117.89810507 +.00000060 +00000-0 +29316-4 0  9996
2 18586 074.0089 027.9376 0019975 097.1991 330.4681 14.36778737540141
Epoch (UTC): 27 April 2017 21:33:16
Eccentricity: 0.0019975
inclination: 74.0089°
perigee height: 755 km
apogee height: 783 km
right ascension of ascending node: 27.9376°
argument of perigee: 97.1991°
revolutions per day: 14.36778737
mean anomaly at epoch: 330.4681°
orbit number at epoch: 54014

The dashed part of the orbit path shows where the satellite is in the earth's shadow,  

DLR